Date,TemperatureHighF,TemperatureAvgF,TemperatureLowF,DewpointHighF,DewpointAvgF,DewpointLowF,HumidityHigh,HumidityAvg,HumidityLow,PressureMaxIn,PressureMinIn,WindSpeedMaxMPH,WindSpeedAvgMPH,GustSpeedMaxMPH,PrecipitationSumIn
2013-7-1,76,66,60,62,55,47,86,68,55,29.98,29.88,17,2,0,0.00
2013-7-2,67,63,57,64,59,52,94,87,64,30.00,29.96,7,1,0,0.32
2013-7-3,80,71,64,69,65,63,94,82,60,30.04,29.96,6,1,0,0.00
2013-7-4,79,70,60,67,62,59,95,77,55,30.09,30.02,4,0,0,0.00
2013-7-5,85,74,65,70,66,62,92,78,56,30.07,29.99,5,0,0,0.00
2013-7-6,78,73,68,72,68,65,93,85,71,30.04,29.95,8,0,0,0.00
2013-7-7,84,75,67,73,69,65,94,83,66,30.00,29.93,9,1,0,0.00
2013-7-8,82,75,70,76,70,67,92,85,76,30.01,29.91,7,1,0,0.06
2013-7-9,88,79,73,78,74,71,94,84,65,29.95,29.84,13,1,0,0.02
2013-7-10,81,76,63,76,70,56,94,83,58,29.93,29.78,10,2,0,0.42
2013-7-11,80,69,58,63,56,53,91,67,43,30.03,29.93,11,1,0,0.00
2013-7-12,81,70,57,63,58,54,91,67,44,30.10,30.02,8,1,0,0.00
2013-7-13,84,74,62,67,63,57,86,69,52,30.12,30.07,11,2,0,0.00
2013-7-14,89,78,66,72,69,64,92,74,54,30.16,30.10,8,2,0,0.00
2013-7-15,93,82,73,76,74,70,92,75,56,30.22,30.16,8,1,0,0.00
2013-7-16,93,83,74,75,72,71,90,72,49,30.27,30.19,9,1,0,0.00
2013-7-17,91,81,74,75,72,70,89,76,57,30.26,30.12,9,1,0,0.00
2013-7-18,95,84,74,77,74,71,91,73,52,30.13,29.93,10,2,0,0.00
2013-7-19,95,85,75,76,74,72,91,73,51,29.93,29.72,20,3,0,0.00
2013-7-20,89,82,73,75,68,60,88,66,43,29.86,29.71,12,2,0,0.00
2013-7-21,89,78,68,69,66,62,85,67,48,29.92,29.82,8,1,0,0.00
2013-7-22,85,74,66,71,67,64,94,81,56,29.84,29.71,11,2,0,0.73
2013-7-23,82,72,59,69,65,54,94,78,59,29.87,29.66,19,4,0,0.02
2013-7-24,74,63,52,56,52,49,91,69,47,30.00,29.87,5,0,0,0.00
2013-7-25,79,68,56,59,56,53,92,68,44,30.07,30.00,9,0,0,0.00
2013-7-26,77,68,59,64,60,55,88,75,58,30.04,29.86,5,0,0,0.00
2013-7-27,73,66,57,64,60,51,93,81,66,29.86,29.77,14,2,0,0.19
2013-7-28,68,59,51,55,51,48,90,77,54,29.98,29.83,15,3,0,0.00
2013-7-29,74,63,54,58,55,50,87,75,55,30.15,29.98,11,1,0,0.00
2013-7-30,78,68,57,63,59,55,93,74,53,30.17,30.06,4,0,0,0.00
2013-7-31,70,67,64,67,65,62,95,92,82,30.06,29.89,10,0,0,0.22